EA3KZ-1 Weather Reports


time (UTC)temp
C
wind
direction
speed
KPH
gust
KPH
rain 1hr
cm
rain 24hr
cm
rain mn
cm
humidity
%
barometer
mb
20260509195544 13 113 0.0 3.2 0.00 1.09 1.09 96 1007.8
20260509194541 13 0.0 3.2 0.00 1.09 1.09 96 1007.7
20260509193539 13 140 1.6 3.2 0.00 1.09 1.09 96 1007.6
20260509192536 13 136 3.2 6.4 0.00 1.09 1.09 96 1007.5
20260509191533 13 148 3.2 6.4 0.00 1.09 1.09 96 1007.4
20260509190531 13 128 1.6 6.4 0.00 1.09 1.09 95 1007.0
20260509185528 13 102 3.2 6.4 0.00 1.09 1.09 95 1006.9
20260509184526 13 93 1.6 3.2 0.00 1.09 1.09 94 1006.6
20260509183523 13 37 1.6 6.4 0.03 1.09 1.09 93 1006.5
20260509182520 13 130 3.2 6.4 0.03 1.09 1.09 91 1006.5
20260509181518 13 90 0.0 3.2 0.10 1.09 1.09 89 1006.0
20260509180515 13 235 1.6 6.4 0.13 1.09 1.09 88 1005.8
20260509175613 13 235 3.2 9.7 0.15 1.09 1.09 89 1005.7
20260509174610 12 259 4.8 14.5 0.20 1.09 1.09 93 1005.5
20260509173607 12 295 3.2 14.5 0.28 1.04 1.04 95 1005.6
20260509172605 12 270 6.4 14.5 0.43 1.04 1.04 96 1005.5
20260509171602 13 275 6.4 17.7 0.38 0.99 0.99 96 1006.0
20260509170600 13 289 8.0 12.9 0.38 0.97 0.97 96 1006.3
20260509165557 13 297 4.8 11.3 0.38 0.94 0.94 97 1006.8
20260509164554 13 287 3.2 6.4 0.38 0.86 0.86 96 1007.3
20260509163552 13 293 0.0 3.2 0.43 0.79 0.79 96 1007.7
20260509162549 13 158 0.0 3.2 0.33 0.64 0.64 96 1008.1
20260509161547 13 136 1.6 3.2 0.33 0.61 0.61 96 1008.4
20260509160544 13 122 1.6 3.2 0.33 0.56 0.56 96 1008.5
20260509155541 13 123 1.6 6.4 0.33 0.53 0.53 95 1008.7
20260509154539 13 145 4.8 11.3 0.30 0.48 0.48 94 1008.7
20260509153536 13 121 6.4 12.9 0.23 0.36 0.36 93 1008.7
20260509152533 13 113 4.8 12.9 0.23 0.30 0.30 93 1008.1
20260509151531 13 272 1.6 6.4 0.23 0.28 0.28 93 1006.5
20260509150528 13 313 4.8 9.7 0.23 0.23 0.23 92 1006.0
20260509145526 13 307 9.7 14.5 0.20 0.20 0.20 92 1006.2
20260509144523 13 297 8.0 12.9 0.18 0.18 0.18 92 1006.1
20260509143520 13 348 11.3 22.5 0.13 0.13 0.13 90 1006.5
20260509142518 14 331 9.7 17.7 0.05 0.05 0.05 88 1007.1
20260509141515 15 19 9.7 17.7 0.03 0.03 0.03 86 1007.4
20260509140613 15 354 8.0 20.9 0.00 0.00 0.00 82 1007.8
20260509135610 16 36 11.3 25.7 0.00 0.00 0.00 77 1007.9
20260509134607 16 2 6.4 12.9 0.00 0.00 0.00 74 1008.1
20260509133605 16 344 9.7 17.7 0.00 0.00 0.00 75 1008.1
20260509132602 16 1 6.4 12.9 0.00 0.00 0.00 77 1008.1
20260509131600 16 16 4.8 11.3 0.00 0.00 0.00 78 1008.0
20260509130557 16 299 4.8 12.9 0.00 0.00 0.00 77 1007.6
20260509125554 16 12 6.4 17.7 0.00 0.00 0.00 75 1007.4
20260509124552 16 350 9.7 20.9 0.00 0.00 0.00 73 1007.2
20260509123549 16 358 14.5 24.1 0.00 0.00 0.00 72 1007.3
20260509122546 17 22 9.7 17.7 0.00 0.00 0.00 70 1007.8
20260509121544 16 29 8.0 17.7 0.00 0.00 0.00 71 1008.1
20260509120541 16 27 12.9 27.4 0.00 0.00 0.00 72 1008.5
20260509115539 17 39 8.0 17.7 0.00 0.00 0.00 73 1009.0
20260509114536 17 355 8.0 14.5 0.00 0.00 0.00 72 1009.0
20260509113533 17 32 8.0 17.7 0.00 0.00 0.00 75 1009.1
20260509112531 16 4 8.0 20.9 0.00 0.00 0.00 78 1009.4
20260509111528 16 15 3.2 14.5 0.00 0.00 0.00 82 1009.3
20260509110526 16 52 3.2 9.7 0.00 0.00 0.00 80 1009.0
20260509105524 16 50 8.0 17.7 0.00 0.00 0.00 77 1009.1
20260509104521 17 22 6.4 17.7 0.00 0.00 0.00 77 1009.1
20260509103519 17 32 4.8 11.3 0.00 0.00 0.00 76 1009.3
20260509102516 17 30 8.0 17.7 0.00 0.00 0.00 76 1009.2
20260509101614 17 342 9.7 17.7 0.00 0.00 0.00 75 1009.0
20260509100612 17 23 9.7 20.9 0.00 0.00 0.00 78 1009.1
20260509095609 16 12 9.7 17.7 0.00 0.00 0.00 77 1009.0
20260509094607 16 11 9.7 17.7 0.00 0.00 0.00 78 1008.9
20260509093604 17 328 4.8 12.9 0.00 0.00 0.00 77 1008.7
20260509092602 16 13 9.7 17.7 0.00 0.00 0.00 78 1008.7
20260509091559 16 315 8.0 17.7 0.00 0.00 0.00 78 1008.8
20260509090557 16 345 9.7 17.7 0.00 0.00 0.00 79 1008.6
20260509085554 16 339 9.7 17.7 0.00 0.00 0.00 78 1008.5
20260509084551 16 7 9.7 20.9 0.00 0.00 0.00 79 1008.6
20260509083549 16 299 6.4 17.7 0.00 0.00 0.00 79 1008.6
20260509082546 16 10 6.4 20.9 0.00 0.00 0.00 77 1008.5
20260509081544 16 352 8.0 14.5 0.00 0.00 0.00 77 1008.1
20260509080541 16 330 12.9 22.5 0.00 0.00 0.00 78 1008.1
20260509075538 15 325 12.9 22.5 0.00 0.00 0.00 80 1008.2
20260509074536 15 4 11.3 22.5 0.00 0.00 0.00 81 1008.4
20260509073533 15 356 8.0 17.7 0.00 0.00 0.00 83 1008.5
20260509072531 15 346 11.3 17.7 0.00 0.00 0.00 84 1008.6
20260509071528 15 343 9.7 17.7 0.00 0.00 0.00 85 1008.8
20260509070526 15 340 9.7 17.7 0.00 0.00 0.00 85 1008.9
20260509065523 15 359 6.4 17.7 0.00 0.00 0.00 85 1008.9
20260509064520 15 329 8.0 17.7 0.00 0.00 0.00 85 1008.9
20260509063518 15 297 6.4 17.7 0.00 0.00 0.00 85 1008.9
20260509062515 14 296 6.4 12.9 0.00 0.00 0.00 86 1009.0
20260509061613 14 327 6.4 11.3 0.00 0.00 0.00 86 1009.2
20260509060610 14 341 4.8 12.9 0.00 0.00 0.00 85 1009.3
20260509055607 14 300 4.8 6.4 0.00 0.00 0.00 84 1009.1
20260509054605 14 305 8.0 14.5 0.00 0.00 0.00 84 1009.0
20260509053602 14 315 8.0 12.9 0.00 0.00 0.00 84 1009.0
20260509052600 14 292 3.2 6.4 0.00 0.00 0.00 84 1009.1
20260509051557 14 347 4.8 9.7 0.00 0.00 0.00 85 1009.0
20260509050554 14 339 3.2 6.4 0.00 0.00 0.00 85 1009.2
20260509045552 14 340 3.2 9.7 0.00 0.00 0.00 85 1009.1
20260509044549 14 347 4.8 9.7 0.00 0.00 0.00 85 1009.1
20260509043547 14 339 4.8 9.7 0.00 0.00 0.00 85 1009.3
20260509042544 14 317 1.6 3.2 0.00 0.00 0.00 85 1009.1
20260509041541 14 298 4.8 9.7 0.00 0.00 0.00 85 1009.2
20260509040539 14 313 1.6 6.4 0.00 0.00 0.00 85 1009.1
20260509035536 14 301 4.8 9.7 0.00 0.00 0.00 85 1009.2
20260509034534 14 358 3.2 6.4 0.00 0.00 0.00 85 1009.3
20260509033531 14 314 4.8 9.7 0.00 0.00 0.00 85 1009.2
20260509032528 14 343 3.2 6.4 0.00 0.00 0.00 85 1009.2
20260509031526 14 313 4.8 9.7 0.00 0.00 0.00 85 1009.3
20260509030523 14 318 1.6 6.4 0.00 0.00 0.00 85 1009.3
20260509025521 14 318 4.8 9.7 0.00 0.00 0.00 85 1009.3
20260509024518 14 294 4.8 9.7 0.00 0.00 0.00 85 1009.4
20260509023515 14 297 6.4 9.7 0.00 0.00 0.00 85 1009.4
20260509022613 14 341 3.2 6.4 0.00 0.00 0.00 85 1009.5
20260509021610 14 319 6.4 11.3 0.00 0.00 0.00 85 1009.4
20260509020608 14 288 4.8 6.4 0.00 0.00 0.00 86 1009.8
20260509015605 14 313 1.6 6.4 0.00 0.00 0.00 86 1009.8
20260509014603 14 297 4.8 9.7 0.00 0.00 0.00 86 1010.0
20260509013600 14 275 3.2 6.4 0.00 0.00 0.00 86 1010.0
20260509012557 14 286 3.2 6.4 0.00 0.00 0.00 85 1010.1
20260509011555 14 297 4.8 9.7 0.00 0.00 0.00 85 1010.1
20260509010552 14 311 6.4 9.7 0.00 0.00 0.00 85 1010.3
20260509005549 14 278 4.8 6.4 0.00 0.00 0.00 84 1010.3
20260509004547 14 316 4.8 9.7 0.00 0.00 0.00 84 1010.4
20260509003544 14 301 3.2 6.4 0.00 0.00 0.00 84 1010.6
20260509002542 14 305 3.2 6.4 0.00 0.00 0.00 83 1010.6
20260509001539 14 320 6.4 11.3 0.00 0.00 0.00 83 1010.6
20260509000536 14 293 6.4 9.7 0.00 0.00 0.00 83 1010.7
20260508235534 14 317 3.2 6.4 0.00 0.00 0.00 83 1010.7
20260508234531 14 324 3.2 6.4 0.00 0.00 0.00 83 1010.7
20260508233529 13 300 4.8 6.4 0.00 0.00 0.00 83 1010.7
20260508232526 13 286 4.8 9.7 0.00 0.00 0.00 83 1010.8
20260508231524 13 311 4.8 9.7 0.00 0.00 0.00 84 1010.8
20260508230521 13 288 6.4 9.7 0.00 0.00 0.00 84 1010.9
20260508225518 13 307 3.2 6.4 0.00 0.00 0.00 85 1010.8
20260508224516 13 280 6.4 9.7 0.00 0.00 0.00 86 1010.8
20260508223613 13 289 4.8 6.4 0.00 0.00 0.00 87 1010.9
20260508222611 13 293 6.4 9.7 0.00 0.00 0.00 87 1010.9
20260508221608 13 298 4.8 6.4 0.00 0.00 0.00 87 1011.0
20260508220606 13 313 3.2 6.4 0.00 0.00 0.00 87 1011.2
20260508215603 13 315 3.2 6.4 0.00 0.00 0.00 87 1011.0
20260508214600 13 302 4.8 6.4 0.00 0.00 0.00 87 1010.9
20260508213558 13 316 3.2 6.4 0.00 0.00 0.00 87 1011.0
20260508212555 13 307 1.6 6.4 0.00 0.00 0.00 86 1011.0
20260508211552 13 332 3.2 6.4 0.00 0.00 0.00 86 1011.0
20260508210550 14 8 1.6 3.2 0.00 0.00 0.00 86 1010.9
20260508205547 14 26 1.6 6.4 0.00 0.00 0.00 86 1011.0
20260508204545 14 350 3.2 6.4 0.00 0.00 0.00 86 1011.0
20260508203542 14 356 1.6 6.4 0.00 0.00 0.00 86 1010.8
20260508202539 14 27 3.2 9.7 0.00 0.00 0.00 86 1010.6
20260508201537 14 7 4.8 9.7 0.00 0.00 0.00 86 1010.4
20260508200534 14 316 3.2 6.4 0.00 0.00 0.00 86 1010.5